Location: Unspecified
(41.1637°N, 24.2901°E)
Time: 21:28:24
(UTC+02:00)

X-37B - Pass Details

Date: 15 March 2021
Orbit: 380 x 394 km, 45.0° (Epoch: 07 April)

Event Time Altitude Azimuth Distance (km) Brightness Sun altitude
Rises 19:37:14 0° 279° (W) 2,272 5.8 -24.4°
Reaches altitude 10° 19:39:23 10° 287° (WNW) 1,420 4.5 -24.8°
Enters shadow 19:41:11 27° 310° (NW) 797 2.7 -25.1°
